Hourly Data Report for October 05, 2016

All times are specified in Local Standard Time (LST). Add 1 hour to adjust for Daylight Saving Time where and when it is observed.

ST LEONARD CS
NEW BRUNSWICK

47°09'28.050" N
67°49'55.014" W
245.00 m
810I001
71019
WIY

Download Data

Hourly Data (October 2016)
Hourly Data Report for October 5, 2016
Temp Definition
°C
Dew Point Temp Definition
°C
Rel Hum Definition
%
Wind Dir Definition
10's deg

Wind Spd Definition
km/h
Visibility Definition
km
Stn Press Definition
kPa
Hmdx Definition


Wind Chill Definition


Weather Definition


TIME
00:00 4.7 3.4 91 17 5   99.79     LegendNANA
01:00 6.3 5.5 95 18 7   99.79     LegendNANA
02:00 5.5 4.9 96 16 7   99.80     LegendNANA
03:00 3.5 2.8 95 15 5   99.77     LegendNANA
04:00 2.7 2.1 96 17 5   99.75     LegendNANA
05:00 3.1 2.8 98 17 5   99.76     LegendNANA
06:00 0.9 0.7 99 12 1   99.78     LegendNANA
07:00 2.5 2.3 99 9 1   99.81     LegendNANA
08:00 4.4 4.2 99 25 2   99.84     LegendNANA
09:00 5.0 4.7 98 28 3   99.86     LegendNANA
10:00 6.3 6.0 98 24 2   99.86     LegendNANA
11:00 8.9 8.6 98 24 5   99.82     LegendNANA
12:00 13.5 7.8 69 24 6   99.76     LegendNANA
13:00 16.1 8.4 60 29 6   99.67     LegendNANA
14:00 17.9 9.0 56 26 10   99.59     LegendNANA
15:00 19.0 8.7 51 27 10   99.53     LegendNANA
16:00 19.2 5.5 41 25 13   99.47     LegendNANA
17:00 18.7 7.5 48 26 9   99.44     LegendNANA
18:00 13.9 8.8 71 27 2   99.45     LegendNANA
19:00 10.5 8.6 88 14 4   99.46     LegendNANA
20:00 8.8 7.2 90 15 5   99.49     LegendNANA
21:00 7.9 6.7 92 13 1   99.47     LegendNANA
22:00 6.8 5.8 94 11 4   99.46     LegendNANA
23:00 6.3 5.5 95 7 2   99.44     LegendNANA

Notes on Data Quality.

Legend

  • E = Estimated
  • M = Missing
  • NA = Not Available
  • ‡ = Partner data that is not subject to review by the National Climate Archives
Date modified: